Mount Pleasant, IA

9:33 PM CDT on September 23, 2017 (GMT -0500)
Mount Pleasant Municipal

Weather History for KMPZ - January, 2014

Change the Weather History Date:

Monday, January 6, 2014

  Actual Average Record
Temperature  
Mean Temperature -8 °F -  
Max Temperature -3 °F 29 °F 59 °F (2008)
Min Temperature -13 °F 13 °F -13 °F (1971)
Degree Days  
Heating Degree Days 73    
Moisture  
Dew Point -20 °F    
Average Humidity 56    
Maximum Humidity 68    
Minimum Humidity 48    
Precipitation  
Precipitation 0.00 in - - ()
Sea Level Pressure  
Sea Level Pressure 30.37 in    
Wind  
Wind Speed 15 mph (West)    
Max Wind Speed 21 mph    
Max Gust Speed 30 mph    
Visibility 10 miles    
Events      
Averages and records for this station are not official NWS values.
T = Trace of Precipitation, MM = Missing Value Source: NWS Daily Summary

Daily Weather History Graph

Daily Weather History Graph

Search for Another Location

Airport or City:

Trip Planner

Search our weather history database for the weather conditions in past years. The results will help you decide how hot, cold, wet, or windy it might be!

Date:

Astronomy

Jan. 06, 2014 Rise Set
Actual Time 7:30 AM CST 4:53 PM CST
Civil Twilight 7:00 AM CST 5:23 PM CST
Nautical Twilight 6:25 AM CST 5:58 PM CST
Astronomical Twilight 5:52 AM CST 6:31 PM CST
Moon 10:43 AM CST (1/6) 11:30 PM CST (1/6)
Length of Visible Light 10h 23m
Length of Day
9h 22m
Waxing Crescent, 35% of the Moon is Illuminated
Jan 6
Waxing Crescent
Jan 7
First Quarter
Jan 15
Full
Jan 23
Last Quarter
Jan 30
New

Hourly Weather History & Observations

Time (CST) Temp. Windchill Dew Point Humidity Pressure Visibility Wind Dir Wind Speed Gust Speed Precip Events Conditions
12:15 AM -7.6 °F -30.5 °F -20.4 °F 54% 30.35 in 10.0 mi WNW 17.3 mph 26.5 mph N/A   Scattered Clouds
12:35 AM -8.0 °F -32.2 °F -21.5 °F 52% 30.34 in 10.0 mi NW 19.6 mph 29.9 mph N/A   Scattered Clouds
12:55 AM -8.5 °F -31.7 °F -22.0 °F 52% 30.35 in 10.0 mi WNW 17.3 mph 24.2 mph N/A   Clear
1:15 AM -8.7 °F -28.9 °F -21.6 °F 53% 30.35 in 10.0 mi WNW 12.7 mph 18.4 mph N/A   Clear
1:35 AM -8.9 °F -30.7 °F -20.7 °F 56% 30.35 in 10.0 mi WNW 15.0 mph 21.9 mph N/A   Clear
1:55 AM -8.9 °F -28.2 °F -21.1 °F 55% 30.35 in 10.0 mi WNW 11.5 mph 23.0 mph N/A   Scattered Clouds
2:35 AM -9.9 °F -34.8 °F -24.7 °F 48% 30.35 in 10.0 mi WNW 19.6 mph 28.8 mph N/A   Clear
2:55 AM -10.5 °F -35.5 °F -25.1 °F 49% 30.36 in 10.0 mi WNW 19.6 mph 26.5 mph N/A   Clear
3:15 AM -10.8 °F -35.3 °F -25.2 °F 49% 30.36 in 10.0 mi WNW 18.4 mph 27.6 mph N/A   Clear
3:35 AM -11.2 °F -32.9 °F -24.9 °F 51% 30.37 in 10.0 mi WNW 13.8 mph 21.9 mph N/A   Clear
3:55 AM -11.4 °F -33.9 °F -24.7 °F 52% 30.37 in 10.0 mi West 15.0 mph - N/A   Clear
4:15 AM -11.6 °F -30.6 °F -21.6 °F 61% 30.36 in 10.0 mi WNW 10.4 mph - N/A   Clear
4:35 AM -11.6 °F -35.6 °F -22.2 °F 59% 30.35 in 10.0 mi WNW 17.3 mph 25.3 mph N/A   Scattered Clouds
4:55 AM -11.7 °F -37.2 °F -24.2 °F 54% 30.36 in 10.0 mi WNW 19.6 mph 26.5 mph N/A   Clear
5:15 AM -12.1 °F -35.6 °F -24.7 °F 54% 30.36 in 10.0 mi WNW 16.1 mph 28.8 mph N/A   Clear
5:35 AM -12.1 °F -36.3 °F -24.7 °F 54% 30.37 in 10.0 mi WNW 17.3 mph 26.5 mph N/A   Scattered Clouds
5:55 AM -12.3 °F -36.6 °F -23.8 °F 57% 30.37 in 10.0 mi WNW 17.3 mph 24.2 mph N/A   Scattered Clouds
6:15 AM -12.3 °F -35.8 °F -23.3 °F 58% 30.37 in 10.0 mi WNW 16.1 mph 23.0 mph N/A   Mostly Cloudy
6:35 AM -12.5 °F -33.6 °F -24.7 °F 55% 30.38 in 10.0 mi WNW 12.7 mph 20.7 mph N/A   Scattered Clouds
6:55 AM -13.0 °F -34.3 °F -24.7 °F 56% 30.38 in 10.0 mi WNW 12.7 mph 19.6 mph N/A   Clear
7:15 AM -13.0 °F -34.3 °F -24.9 °F 55% 30.38 in 10.0 mi WNW 12.7 mph 20.7 mph N/A   Clear
7:35 AM -13.0 °F -35.2 °F -24.9 °F 55% 30.38 in 10.0 mi West 13.8 mph - N/A   Clear
7:55 AM -12.6 °F -36.3 °F -24.3 °F 56% 30.38 in 10.0 mi West 16.1 mph 19.6 mph N/A   Clear
8:15 AM -12.3 °F -33.4 °F -23.3 °F 58% 30.39 in 10.0 mi West 12.7 mph 17.3 mph N/A   Clear
8:35 AM -11.9 °F -33.8 °F -23.3 °F 57% 30.39 in 10.0 mi WNW 13.8 mph 19.6 mph N/A   Clear
8:55 AM -11.2 °F -32.1 °F -22.9 °F 56% 30.40 in 10.0 mi West 12.7 mph 21.9 mph N/A   Clear
9:15 AM -10.7 °F -35.7 °F -24.2 °F 51% 30.40 in 10.0 mi West 19.6 mph 27.6 mph N/A   Clear
9:35 AM -10.3 °F -34.6 °F -24.5 °F 50% 30.40 in 10.0 mi West 18.4 mph 26.5 mph N/A   Clear
9:55 AM -9.9 °F -33.5 °F -24.2 °F 50% 30.40 in 10.0 mi WNW 17.3 mph 25.3 mph N/A   Clear
10:15 AM -9.6 °F -34.9 °F -23.4 °F 51% 30.40 in 10.0 mi WNW 20.7 mph 26.5 mph N/A   Clear
10:35 AM -8.9 °F -31.4 °F -22.5 °F 51% 30.40 in 10.0 mi WNW 16.1 mph 27.6 mph N/A   Clear
10:55 AM -8.3 °F -32.1 °F -21.8 °F 52% 30.40 in 10.0 mi West 18.4 mph 24.2 mph N/A   Clear
11:15 AM -8.0 °F -30.3 °F -21.8 °F 51% 30.40 in 10.0 mi West 16.1 mph 21.9 mph N/A   Clear
11:35 AM -7.8 °F -28.6 °F -21.6 °F 51% 30.40 in 10.0 mi West 13.8 mph 26.5 mph N/A   Scattered Clouds
11:55 AM -7.1 °F -29.1 °F -21.1 °F 51% 30.39 in 10.0 mi WNW 16.1 mph 25.3 mph N/A   Scattered Clouds
12:15 PM -6.5 °F -28.4 °F -20.2 °F 52% 30.38 in 10.0 mi West 16.1 mph 23.0 mph N/A   Scattered Clouds
12:35 PM -6.0 °F -28.4 °F -19.3 °F 53% 30.37 in 10.0 mi West 17.3 mph 24.2 mph N/A   Mostly Cloudy
12:55 PM -5.8 °F -29.4 °F -19.5 °F 52% 30.36 in 10.0 mi West 19.6 mph 25.3 mph N/A   Mostly Cloudy
1:15 PM -4.7 °F -26.8 °F -18.4 °F 52% 30.36 in 10.0 mi West 17.3 mph 25.3 mph N/A   Mostly Cloudy
1:35 PM -4.5 °F -27.1 °F -18.6 °F 51% 30.36 in 10.0 mi West 18.4 mph - N/A   Mostly Cloudy
1:55 PM -4.2 °F -26.7 °F -17.0 °F 54% 30.37 in 7.0 mi West 18.4 mph 24.2 mph N/A   Mostly Cloudy
2:15 PM -3.5 °F -25.1 °F -17.7 °F 51% 30.37 in 10.0 mi West 17.3 mph 28.8 mph N/A   Mostly Cloudy
2:35 PM -3.6 °F -24.0 °F -17.3 °F 52% 30.38 in 10.0 mi West 15.0 mph 23.0 mph N/A   Overcast
2:55 PM -3.5 °F -25.1 °F -18.2 °F 49% 30.38 in 10.0 mi West 17.3 mph 27.6 mph N/A   Scattered Clouds
3:15 PM -3.6 °F -24.0 °F -18.2 °F 50% 30.38 in 10.0 mi West 15.0 mph 23.0 mph N/A   Scattered Clouds
3:35 PM -3.3 °F -25.5 °F -18.4 °F 49% 30.38 in 10.0 mi West 18.4 mph 24.2 mph N/A   Scattered Clouds
3:55 PM -3.1 °F -21.8 °F -17.7 °F 50% 30.38 in 10.0 mi West 12.7 mph 18.4 mph N/A   Clear
4:15 PM -3.3 °F -21.2 °F -16.6 °F 53% 30.38 in 10.0 mi West 11.5 mph 18.4 mph N/A   Clear
4:35 PM -3.5 °F -22.3 °F -16.8 °F 53% 30.37 in 10.0 mi West 12.7 mph 18.4 mph N/A   Clear
4:55 PM -4.0 °F -21.2 °F -16.6 °F 55% 30.37 in 10.0 mi West 10.4 mph - N/A   Clear
5:15 PM -4.4 °F -18.2 °F -16.6 °F 56% 30.37 in 10.0 mi West 6.9 mph - N/A   Clear
5:35 PM -4.4 °F -20.6 °F -16.6 °F 56% 30.38 in 10.0 mi West 9.2 mph - N/A   Clear
5:55 PM -4.4 °F -21.6 °F -16.6 °F 56% 30.38 in 10.0 mi West 10.4 mph - N/A   Clear
6:15 PM -5.1 °F -20.4 °F -16.6 °F 58% 30.38 in 10.0 mi WSW 8.1 mph - N/A   Clear
6:35 PM -6.0 °F -21.5 °F -16.6 °F 60% 30.38 in 10.0 mi WSW 8.1 mph - N/A   Clear
6:55 PM -4.9 °F -22.3 °F -15.9 °F 59% 30.38 in 10.0 mi West 10.4 mph - N/A   Clear
7:15 PM -4.9 °F -22.3 °F -15.9 °F 59% 30.38 in 10.0 mi WSW 10.4 mph - N/A   Clear
7:35 PM -5.1 °F -22.5 °F -15.7 °F 60% 30.38 in 10.0 mi WSW 10.4 mph - N/A   Clear
7:55 PM -5.4 °F -21.9 °F -15.9 °F 61% 30.37 in 10.0 mi WSW 9.2 mph - N/A   Clear
8:15 PM -5.8 °F -22.4 °F -15.9 °F 62% 30.37 in 10.0 mi WSW 9.2 mph - N/A   Clear
8:35 PM -5.8 °F -23.4 °F -15.7 °F 62% 30.37 in 10.0 mi WSW 10.4 mph - N/A   Clear
8:55 PM -6.0 °F -21.5 °F -15.3 °F 64% 30.36 in 10.0 mi WSW 8.1 mph - N/A   Clear
9:15 PM -6.2 °F -21.7 °F -15.0 °F 66% 30.36 in 10.0 mi WSW 8.1 mph - N/A   Clear
9:35 PM -6.7 °F -21.0 °F -15.3 °F 66% 30.36 in 10.0 mi WSW 6.9 mph - N/A   Clear
9:55 PM -6.7 °F -22.3 °F -15.0 °F 67% 30.36 in 10.0 mi WSW 8.1 mph - N/A   Clear
10:15 PM -6.7 °F -23.5 °F -14.8 °F 68% 30.35 in 10.0 mi SW 9.2 mph - N/A   Clear
10:35 PM -6.7 °F -23.5 °F -15.0 °F 67% 30.34 in 10.0 mi WSW 9.2 mph - N/A   Clear
10:55 PM -6.7 °F -22.3 °F -15.3 °F 66% 30.34 in 10.0 mi WSW 8.1 mph - N/A   Clear
11:15 PM -6.7 °F -21.0 °F -15.2 °F 67% 30.33 in 10.0 mi WSW 6.9 mph - N/A   Clear
11:35 PM -6.7 °F -21.0 °F -15.0 °F 67% 30.34 in 10.0 mi WSW 6.9 mph - N/A   Clear
11:55 PM -6.2 °F -24.8 °F -14.8 °F 66% 30.34 in 10.0 mi WSW 11.5 mph - N/A   Clear